Location: ????????
(55.0808°N, 38.5463°E)
Time: 20:10:58
(UTC+00:00)

Nimbus 3 Rocket - Visible Passes

Search period start: 19 September 2024 00:00
Search period end: 29 September 2024 00:00
Orbit: 1072 x 1131 km, 99.9° (Epoch: 18 September)

Date Brightness Start Highest point End Pass type
(mag) Time Alt. Az. Time Alt. Az. Time Alt. Az.
19 Sep 7.3 01:21:56 10° N 01:23:57 11° NNW 01:25:58 10° NW visible
19 Sep 7.4 19:22:07 10° ENE 19:22:32 10° ENE 19:22:32 10° ENE visible
19 Sep 5.9 21:04:37 10° NNE 21:09:52 44° ENE 21:09:52 44° ENE visible
19 Sep 5.7 22:50:32 10° NNE 22:56:51 47° WNW 22:57:13 47° WNW visible
20 Sep 7.1 00:37:16 10° N 00:41:09 17° NW 00:44:33 11° WNW visible
20 Sep 6.6 20:21:14 10° NNE 20:25:19 25° ENE 20:25:19 25° ENE visible
20 Sep 5.3 22:06:34 10° NNE 22:12:39 72° NNW 22:12:39 72° NNW visible
20 Sep 6.6 23:52:58 10° N 23:58:08 25° NW 00:00:00 22° WNW visible
21 Sep 7.5 01:41:31 10° NNW 01:41:41 10° NNW 01:41:51 10° NNW visible
21 Sep 7.2 19:38:41 10° NE 19:40:45 14° ENE 19:40:45 14° ENE visible
21 Sep 5.7 21:22:45 10° NNE 21:28:06 53° ENE 21:28:06 53° ENE visible
21 Sep 6.0 23:08:50 10° N 23:14:53 38° NW 23:15:26 38° WNW visible
22 Sep 7.2 00:55:45 10° N 00:58:56 14° NNW 01:02:07 10° WNW visible
22 Sep 6.4 20:39:11 10° NNE 20:43:32 31° ENE 20:43:32 31° ENE visible
22 Sep 5.4 22:24:49 10° NNE 22:30:53 61° NW 22:30:53 61° NW visible
23 Sep 6.8 00:11:21 10° N 00:16:01 21° NW 00:18:13 18° WNW visible
23 Sep 7.0 19:56:11 10° NE 19:58:59 17° ENE 19:58:59 17° ENE visible
23 Sep 5.6 21:40:56 10° NNE 21:46:19 60° NE 21:46:19 60° NE visible
23 Sep 6.2 23:27:10 10° N 23:32:52 32° NW 23:33:40 31° WNW visible
24 Sep 7.3 01:14:22 10° N 01:16:43 12° NNW 01:19:03 10° NW visible
24 Sep 6.2 20:57:15 10° NNE 21:01:46 37° ENE 21:01:46 37° ENE visible
24 Sep 5.7 22:43:05 10° NNE 22:49:06 51° NW 22:49:06 51° NW visible
25 Sep 7.0 00:29:47 10° N 00:33:52 18° NW 00:36:27 14° WNW visible
25 Sep 6.9 20:13:56 10° NE 20:17:12 21° ENE 20:17:12 21° ENE visible
25 Sep 5.5 21:59:09 10° NNE 22:04:33 62° NNE 22:04:33 62° NNE visible
25 Sep 6.5 23:45:30 10° N 23:50:48 26° NW 23:51:53 25° WNW visible
26 Sep 7.4 01:33:18 10° NNW 01:34:27 10° NNW 01:35:35 10° NNW visible
26 Sep 7.4 19:31:45 10° NE 19:32:39 11° ENE 19:32:39 11° ENE visible
26 Sep 6.0 21:15:22 10° NNE 21:19:59 43° NE 21:19:59 43° NE visible
26 Sep 5.9 23:01:23 10° N 23:07:20 41° NW 23:07:20 41° NW visible
27 Sep 7.1 00:48:15 10° N 00:51:41 15° NNW 00:54:40 11° WNW visible
27 Sep 6.7 20:31:52 10° NNE 20:35:26 26° ENE 20:35:26 26° ENE visible
27 Sep 5.6 22:17:22 10° NNE 22:22:46 57° NNW 22:22:46 57° NNW visible
28 Sep 6.7 00:03:53 10° N 00:08:43 22° NW 00:10:07 21° WNW visible
28 Sep 7.2 19:49:00 10° NE 19:50:52 15° ENE 19:50:52 15° ENE visible
28 Sep 5.9 21:33:31 10° NNE 21:38:12 48° NE 21:38:12 48° NE visible
28 Sep 6.2 23:19:42 10° N 23:25:31 34° NW 23:25:33 34° NW visible
